Location: Borbetomagus
(49.6328°N, 8.3592°E)
Time: 20:14:22
(UTC+00:00)

Cosmos 839 Rocket - Pass Details

Date: 19 May 2025
Orbit: 962 x 2090 km, 65.9° (Epoch: 15 June)

Event Time Altitude Azimuth Distance (km) Brightness Sun altitude
Rises 19:37:17 0° 220° (SW) 3,645 7.0 -4.4°
Reaches altitude 10° 19:39:42 10° 222° (SW) 2,731 6.4 -4.7°
Maximum altitude 19:45:57 80° 309° (NW) 1,091 4.4 -5.5°
Drops below altitude 10° 19:53:26 10° 38° (NE) 3,229 6.8 -6.4°
Sets 19:56:31 0° 39° (NE) 4,356 7.4 -6.8°
